| time (UTC) | temp F | wind direction | speed MPH | gust MPH | rain 1hr in | rain 24hr in | rain mn in | humidity % | barometer mb |
| 20260504184434 | 77 | 262 | 9.0 | 9.0 | 0.00 | 0.00 | 0.00 | ||
| 20260504183430 | 78 | 276 | 5.0 | 5.0 | 0.00 | 0.00 | 0.00 | ||
| 20260504182427 | 77 | 269 | 9.0 | 10.0 | 0.00 | 0.00 | 0.00 | ||
| 20260504181421 | 77 | 277 | 8.0 | 7.0 | 0.00 | 0.00 | 0.00 | ||
| 20260504180418 | 76 | 266 | 11.0 | 10.0 | 0.00 | 0.00 | 0.00 | ||
| 20260504175410 | 76 | 264 | 10.0 | 8.0 | 0.00 | 0.00 | 0.00 | ||
| 20260504174405 | 76 | 260 | 9.0 | 9.0 | 0.00 | 0.00 | 0.00 | ||
| 20260504173357 | 76 | 269 | 9.0 | 9.0 | 0.00 | 0.00 | 0.00 | ||
| 20260504172359 | 76 | 287 | 5.0 | 5.0 | 0.00 | 0.00 | 0.00 | ||
| 20260504171345 | 76 | 274 | 8.0 | 6.0 | 0.00 | 0.00 | 0.00 | ||
| 20260504170340 | 76 | 252 | 6.0 | 4.0 | 0.00 | 0.00 | 0.00 | ||
| 20260504160307 | 72 | 262 | 4.0 | 7.0 | 0.00 | 0.00 | 0.00 | ||
| 20260504150241 | 67 | 270 | 8.0 | 7.0 | 0.00 | 0.00 | 0.00 | ||
| 20260504141205 | 64 | 259 | 8.0 | 10.0 | 0.00 | 0.00 | 0.00 | ||
| 20260504140159 | 63 | 262 | 9.0 | 5.0 | 0.00 | 0.00 | 0.00 | ||
| 20260504130126 | 60 | 257 | 9.0 | 13.0 | 0.00 | 0.00 | 0.00 | ||
| 20260504081834 | 52 | 174 | 4.0 | 1.0 | 0.00 | 0.00 | 0.00 | ||
| 20260504080829 | 52 | 228 | 1.0 | 4.0 | 0.00 | 0.00 | 0.00 | ||
| 20260504050750 | 50 | 259 | 5.0 | 7.0 | 0.00 | 0.00 | 0.00 | ||
| 20260504050603 | 50 | 259 | 5.0 | 7.0 | 0.00 | 0.00 | 0.00 | ||
| 20260504044554 | 49 | 170 | 0.0 | 0.0 | 0.00 | 0.00 | 0.00 | ||
| 20260504043549 | 49 | 273 | 2.0 | 2.0 | 0.00 | 0.00 | 0.00 | ||
| 20260504042544 | 49 | 225 | 3.0 | 2.0 | 0.00 | 0.00 | 0.00 | ||
| 20260504041539 | 48 | 229 | 3.0 | 3.0 | 0.00 | 0.00 | 0.00 | ||
| 20260504040529 | 48 | 153 | 0.0 | 0.0 | 0.00 | 0.00 | 0.00 | ||
| 20260504035520 | 48 | 153 | 0.0 | 0.0 | 0.00 | 0.00 | 0.00 | ||
| 20260504034507 | 49 | 153 | 0.0 | 0.0 | 0.00 | 0.00 | 0.00 | ||
| 20260504033457 | 49 | 236 | 0.0 | 0.0 | 0.00 | 0.00 | 0.00 | ||
| 20260504032450 | 48 | 236 | 0.0 | 0.0 | 0.00 | 0.00 | 0.00 | ||
| 20260504031444 | 49 | 236 | 0.0 | 0.0 | 0.00 | 0.00 | 0.00 | ||
| 20260504030438 | 47 | 236 | 0.0 | 0.0 | 0.00 | 0.00 | 0.00 | ||
| 20260504025432 | 47 | 236 | 0.0 | 0.0 | 0.00 | 0.00 | 0.00 | ||
| 20260504024421 | 50 | 236 | 0.0 | 0.0 | 0.00 | 0.00 | 0.00 | ||
| 20260504023414 | 48 | 236 | 0.0 | 0.0 | 0.00 | 0.00 | 0.00 | ||
| 20260504022405 | 48 | 236 | 0.0 | 0.0 | 0.00 | 0.00 | 0.00 | ||
| 20260504021341 | 49 | 236 | 0.0 | 0.0 | 0.00 | 0.00 | 0.00 | ||
| 20260504020337 | 48 | 236 | 0.0 | 0.0 | 0.00 | 0.00 | 0.00 | ||
| 20260504015329 | 49 | 236 | 0.0 | 0.0 | 0.00 | 0.00 | 0.00 | ||
| 20260504014322 | 49 | 236 | 0.0 | 0.0 | 0.00 | 0.00 | 0.00 | ||
| 20260504011303 | 51 | 236 | 0.0 | 0.0 | 0.00 | 0.00 | 0.00 | ||
| 20260504010246 | 51 | 236 | 0.0 | 0.0 | 0.00 | 0.00 | 0.00 | ||
| 20260504005232 | 51 | 236 | 0.0 | 0.0 | 0.00 | 0.00 | 0.00 | ||
| 20260504004213 | 51 | 236 | 0.0 | 0.0 | 0.00 | 0.00 | 0.00 | ||
| 20260504003207 | 51 | 236 | 0.0 | 0.0 | 0.00 | 0.00 | 0.00 | ||
| 20260504002157 | 52 | 236 | 0.0 | 0.0 | 0.00 | 0.00 | 0.00 | ||
| 20260504001150 | 54 | 269 | 0.0 | 0.0 | 0.00 | 0.00 | 0.00 | ||
| 20260504000148 | 55 | 269 | 0.0 | 0.0 | 0.00 | 0.00 | 0.00 | ||
| 20260503235136 | 57 | 210 | 0.0 | 0.0 | 0.00 | 0.00 | 0.00 | ||
| 20260503234128 | 57 | 262 | 0.0 | 0.0 | 0.00 | 0.00 | 0.00 | ||
| 20260503233122 | 58 | 252 | 0.0 | 2.0 | 0.00 | 0.00 | 0.00 | ||
| 20260503232115 | 58 | 243 | 2.0 | 3.0 | 0.00 | 0.00 | 0.00 | ||
| 20260503231108 | 59 | 307 | 0.0 | 2.0 | 0.00 | 0.00 | 0.00 | ||
| 20260503230059 | 60 | 274 | 1.0 | 2.0 | 0.00 | 0.00 | 0.00 | ||
| 20260503225052 | 61 | 23 | 4.0 | 1.0 | 0.00 | 0.00 | 0.00 | ||
| 20260503224046 | 63 | 304 | 1.0 | 0.0 | 0.00 | 0.00 | 0.00 | ||
| 20260503223038 | 63 | 240 | 6.0 | 6.0 | 0.00 | 0.00 | 0.00 | ||
| 20260503222032 | 64 | 307 | 5.0 | 5.0 | 0.00 | 0.00 | 0.00 | ||
| 20260503221027 | 65 | 295 | 3.0 | 4.0 | 0.00 | 0.00 | 0.00 | ||
| 20260503220024 | 65 | 280 | 3.0 | 4.0 | 0.00 | 0.00 | 0.00 | ||
| 20260503214002 | 66 | 295 | 3.0 | 2.0 | 0.00 | 0.00 | 0.00 | ||
| 20260503213002 | 65 | 267 | 2.0 | 4.0 | 0.00 | 0.00 | 0.00 | ||
| 20260503211956 | 66 | 280 | 4.0 | 5.0 | 0.00 | 0.00 | 0.00 | ||
| 20260503210951 | 66 | 343 | 1.0 | 3.0 | 0.00 | 0.00 | 0.00 | ||
| 20260503205944 | 64 | 280 | 5.0 | 3.0 | 0.00 | 0.00 | 0.00 | ||
| 20260503204934 | 66 | 333 | 4.0 | 4.0 | 0.00 | 0.00 | 0.00 | ||
| 20260503203930 | 66 | 255 | 3.0 | 8.0 | 0.00 | 0.00 | 0.00 | ||
| 20260503202927 | 66 | 345 | 6.0 | 2.0 | 0.00 | 0.00 | 0.00 | ||
| 20260503201923 | 65 | 233 | 6.0 | 7.0 | 0.00 | 0.00 | 0.00 | ||
| 20260503200916 | 65 | 352 | 6.0 | 5.0 | 0.00 | 0.00 | 0.00 | ||
| 20260503195913 | 66 | 308 | 2.0 | 5.0 | 0.00 | 0.00 | 0.00 | ||
| 20260503194907 | 64 | 277 | 7.0 | 9.0 | 0.00 | 0.00 | 0.00 | ||
| 20260503193903 | 65 | 297 | 5.0 | 10.0 | 0.00 | 0.00 | 0.00 | ||
| 20260503192900 | 65 | 336 | 5.0 | 7.0 | 0.00 | 0.00 | 0.00 | ||
| 20260503191848 | 64 | 269 | 9.0 | 3.0 | 0.00 | 0.00 | 0.00 | ||
| 20260503190837 | 65 | 285 | 7.0 | 11.0 | 0.00 | 0.00 | 0.00 | ||
| 20260503185831 | 63 | 281 | 5.0 | 5.0 | 0.00 | 0.00 | 0.00 |